TimeEST,TemperatureF,Dew PointF,Humidity,Sea Level PressureIn,VisibilityMPH,Wind Direction,Wind SpeedMPH,Gust SpeedMPH,PrecipitationIn,Events,Conditions,WindDirDegrees,DateUTC
12:53 AM,51.1,46.0,83,29.37,10.0,West,5.8,-,N/A,,Overcast,280,2014-01-12 05:53:00
1:10 AM,50.0,44.6,82,29.39,10.0,West,4.6,-,N/A,,Overcast,260,2014-01-12 06:10:00
1:53 AM,50.0,39.0,66,29.40,10.0,West,9.2,-,N/A,,Mostly Cloudy,270,2014-01-12 06:53:00
2:53 AM,46.9,33.1,59,29.45,10.0,West,11.5,-,N/A,,Overcast,280,2014-01-12 07:53:00
3:53 AM,46.0,30.0,54,29.48,10.0,WNW,15.0,23.0,N/A,,Scattered Clouds,290,2014-01-12 08:53:00
4:53 AM,45.0,28.9,53,29.51,10.0,West,13.8,-,N/A,,Mostly Cloudy,280,2014-01-12 09:53:00
5:53 AM,44.1,30.0,58,29.52,10.0,West,10.4,-,N/A,,Overcast,260,2014-01-12 10:53:00
6:53 AM,43.0,28.9,58,29.56,10.0,West,15.0,20.7,N/A,,Overcast,280,2014-01-12 11:53:00
7:53 AM,43.0,28.0,56,29.60,10.0,West,12.7,20.7,N/A,,Overcast,280,2014-01-12 12:53:00
8:53 AM,43.0,27.0,53,29.65,10.0,WNW,12.7,28.8,N/A,,Overcast,290,2014-01-12 13:53:00
9:53 AM,43.0,28.0,56,29.70,10.0,West,11.5,-,N/A,,Overcast,280,2014-01-12 14:53:00
10:53 AM,44.1,28.0,53,29.72,10.0,West,11.5,-,N/A,,Overcast,270,2014-01-12 15:53:00
11:53 AM,43.0,27.0,53,29.73,10.0,West,10.4,-,N/A,,Overcast,280,2014-01-12 16:53:00
12:53 PM,43.0,26.1,51,29.75,10.0,West,16.1,23.0,N/A,,Overcast,270,2014-01-12 17:53:00
1:53 PM,45.0,27.0,49,29.76,10.0,West,13.8,20.7,N/A,,Overcast,270,2014-01-12 18:53:00
2:53 PM,45.0,26.1,48,29.80,10.0,WNW,19.6,25.3,N/A,,Scattered Clouds,290,2014-01-12 19:53:00
3:53 PM,43.0,25.0,49,29.86,10.0,West,16.1,-,N/A,,Mostly Cloudy,280,2014-01-12 20:53:00
4:53 PM,41.0,25.0,53,29.90,10.0,West,10.4,25.3,N/A,,Partly Cloudy,280,2014-01-12 21:53:00
5:53 PM,41.0,25.0,53,29.93,10.0,West,11.5,-,N/A,,Mostly Cloudy,270,2014-01-12 22:53:00
6:53 PM,39.9,24.1,53,29.96,10.0,West,9.2,-,N/A,,Partly Cloudy,280,2014-01-12 23:53:00
7:53 PM,39.0,24.1,55,29.98,10.0,West,5.8,-,N/A,,Mostly Cloudy,270,2014-01-13 00:53:00
8:53 PM,39.0,24.1,55,29.99,10.0,West,8.1,-,N/A,,Clear,280,2014-01-13 01:53:00
9:53 PM,36.0,23.0,59,30.01,10.0,WSW,3.5,-,N/A,,Clear,240,2014-01-13 02:53:00
10:53 PM,33.1,25.0,72,30.03,10.0,WSW,10.4,-,N/A,,Clear,240,2014-01-13 03:53:00
11:53 PM,34.0,25.0,70,30.04,10.0,SW,6.9,-,N/A,,Clear,230,2014-01-13 04:53:00